Location: Ahausen
(50.4985°N, 8.2722°E)
Time: 03:36:00
(UTC+00:00)

Cosmos 1943 Rocket - Pass Details

Date: 18 September 2020
Orbit: 814 x 842 km, 71.0° (Epoch: 22 October)

Event Time Altitude Azimuth Distance (km) Brightness Sun altitude
Exits shadow 22:35:54 16° 43° (NE) 2,074 4.5 -37.2°
Drops below altitude 10° 22:36:57 10° 39° (NE) 2,445 4.9 -37.3°
Sets 22:39:28 0° 34° (NNE) 3,378 5.8 -37.4°
